• In Hungary
  • List of Countries
  • For 7 days
  • Water Temperature
  • Satellite Maps
  • Weather Map
  • News
  • Weather Widgets
  • user-avatar
    Login

    Hourly Weather Bristol

    Today, 13 December, Wednesday

    Time Temperature Precipitation Wind Pressure Humidity
    00:00 +5°C° 0.2 mm 6 mps 751 mmHg 95%
    01:00 +6°C° 0 mm 5 mps 750 mmHg 94%
    02:00 +5°C° 0 mm 4 mps 750 mmHg 94%
    03:00 +4°C° 0 mm 4 mps 750 mmHg 93%
    04:00 +4°C° 0.1 mm 4 mps 750 mmHg 93%
    05:00 +4°C° 0.1 mm 4 mps 750 mmHg 92%
    06:00 +4°C° 0.1 mm 4 mps 750 mmHg 92%
    07:00 +5°C° 0.4 mm 4 mps 750 mmHg 93%
    08:00 +5°C° 0.4 mm 5 mps 749 mmHg 93%
    09:00 +5°C° 0.4 mm 5 mps 749 mmHg 94%
    10:00 +5°C° 0.5 mm 6 mps 748 mmHg 93%
    11:00 +6°C° 0.5 mm 7 mps 747 mmHg 92%
    12:00 +6°C° 0.5 mm 7 mps 746 mmHg 91%
    13:00 +6°C° 0.6 mm 8 mps 746 mmHg 89%
    14:00 +6°C° 0.6 mm 8 mps 745 mmHg 86%
    15:00 +5°C° 0.6 mm 9 mps 745 mmHg 83%
    16:00 +4°C° 0.1 mm 8 mps 745 mmHg 82%
    17:00 +3°C° 0.1 mm 7 mps 745 mmHg 80%
    18:00 +2°C° 0.1 mm 7 mps 745 mmHg 79%
    19:00 +1°C° 0.6 mm 8 mps 745 mmHg 76%
    20:00 +1°C° 0.6 mm 9 mps 745 mmHg 73%
    21:00 +1°C° 0.6 mm 10 mps 745 mmHg 70%
    22:00 +1°C° 0 mm 10 mps 746 mmHg 71%
    23:00 +1°C° 0 mm 9 mps 747 mmHg 72%

    Tomorrow, 14 December, Thursday

    Time Temperature Precipitation Wind Pressure Humidity
    00:00 0°C° 0 mm 9 mps 747 mmHg 73%
    01:00 +1°C° 0 mm 8 mps 747 mmHg 73%
    02:00 +1°C° 0 mm 8 mps 747 mmHg 74%
    03:00 +1°C° 0 mm 8 mps 747 mmHg 75%
    04:00 +2°C° 0.1 mm 7 mps 747 mmHg 75%
    05:00 +2°C° 0.1 mm 7 mps 747 mmHg 75%
    06:00 +2°C° 0.1 mm 7 mps 746 mmHg 76%
    07:00 +2°C° 0.1 mm 7 mps 746 mmHg 77%
    08:00 +2°C° 0.1 mm 6 mps 746 mmHg 78%
    09:00 +2°C° 0.1 mm 6 mps 745 mmHg 79%
    10:00 +2°C° 0.4 mm 6 mps 745 mmHg 78%
    11:00 +3°C° 0.4 mm 6 mps 744 mmHg 78%
    12:00 +3°C° 0.4 mm 6 mps 744 mmHg 77%
    13:00 +3°C° 0.2 mm 6 mps 743 mmHg 77%
    14:00 +3°C° 0.2 mm 6 mps 743 mmHg 76%
    15:00 +2°C° 0.2 mm 6 mps 743 mmHg 75%
    16:00 +2°C° 0 mm 5 mps 743 mmHg 77%
    17:00 +1°C° 0 mm 5 mps 742 mmHg 78%
    18:00 +1°C° 0 mm 5 mps 742 mmHg 80%
    19:00 +1°C° 0.1 mm 5 mps 742 mmHg 80%
    20:00 +2°C° 0.1 mm 6 mps 742 mmHg 81%
    21:00 +2°C° 0.1 mm 6 mps 741 mmHg 81%
    22:00 +2°C° 0.2 mm 6 mps 742 mmHg 83%
    23:00 +2°C° 0.2 mm 6 mps 742 mmHg 86%

    Day after tomorrow, 15 December, Friday

    Time Temperature Precipitation Wind Pressure Humidity
    00:00 +2°C° 0.2 mm 6 mps 742 mmHg 88%
    01:00 +2°C° 0 mm 6 mps 743 mmHg 87%
    02:00 +2°C° 0 mm 6 mps 743 mmHg 86%
    03:00 +1°C° 0 mm 6 mps 744 mmHg 85%
    04:00 +2°C° 0 mm 7 mps 745 mmHg 84%
    05:00 +2°C° 0 mm 7 mps 745 mmHg 83%
    06:00 +3°C° 0 mm 7 mps 746 mmHg 82%
    07:00 +2°C° 0 mm 8 mps 747 mmHg 81%
    08:00 +2°C° 0 mm 8 mps 747 mmHg 80%
    09:00 +2°C° 0 mm 8 mps 748 mmHg 79%
    10:00 +2°C° 0 mm 8 mps 749 mmHg 78%
    11:00 +4°C° 0 mm 7 mps 750 mmHg 76%
    12:00 +4°C° 0 mm 7 mps 751 mmHg 75%
    13:00 +4°C° 0 mm 6 mps 752 mmHg 78%
    14:00 +4°C° 0 mm 6 mps 753 mmHg 80%
    15:00 +3°C° 0 mm 5 mps 753 mmHg 82%
    16:00 +2°C° 0 mm 5 mps 754 mmHg 84%
    17:00 +3°C° 0 mm 4 mps 755 mmHg 85%
    18:00 +1°C° 0 mm 4 mps 756 mmHg 87%
    19:00 +1°C° 0 mm 4 mps 757 mmHg 87%
    20:00 0°C° 0 mm 4 mps 757 mmHg 86%
    21:00 +1°C° 0 mm 3 mps 758 mmHg 86%
    22:00 +1°C° 0 mm 3 mps 758 mmHg 86%
    23:00 +1°C° 0 mm 3 mps 759 mmHg 85%

    16 December, Saturday

    Time Temperature Precipitation Wind Pressure Humidity
    00:00 +1°C° 0 mm 3 mps 759 mmHg 85%
    01:00 0°C° 0 mm 3 mps 759 mmHg 85%
    02:00 0°C° 0 mm 3 mps 760 mmHg 85%
    03:00 0°C° 0 mm 3 mps 760 mmHg 86%
    04:00 0°C° 0 mm 3 mps 760 mmHg 86%
    05:00 0°C° 0 mm 3 mps 761 mmHg 87%
    06:00 0°C° 0 mm 3 mps 761 mmHg 87%
    07:00 +1°C° 0 mm 3 mps 762 mmHg 86%
    08:00 +1°C° 0 mm 3 mps 762 mmHg 86%
    09:00 +1°C° 0 mm 3 mps 763 mmHg 85%
    10:00 +2°C° 0.1 mm 3 mps 763 mmHg 82%
    11:00 +3°C° 0.1 mm 3 mps 763 mmHg 80%
    12:00 +4°C° 0.1 mm 3 mps 763 mmHg 77%
    13:00 +4°C° 0.2 mm 4 mps 763 mmHg 79%
    14:00 +4°C° 0.2 mm 4 mps 763 mmHg 81%
    15:00 +5°C° 0.2 mm 5 mps 763 mmHg 84%
    16:00 +4°C° 0.2 mm 4 mps 763 mmHg 86%
    17:00 +4°C° 0.2 mm 4 mps 763 mmHg 89%
    18:00 +3°C° 0.2 mm 3 mps 764 mmHg 92%
    19:00 +3°C° 0 mm 3 mps 764 mmHg 92%
    20:00 +2°C° 0 mm 3 mps 765 mmHg 92%
    21:00 +2°C° 0 mm 3 mps 765 mmHg 91%
    22:00 +2°C° 0 mm 2 mps 766 mmHg 92%
    23:00 +2°C° 0 mm 2 mps 766 mmHg 92%

    17 December, Sunday

    Time Temperature Precipitation Wind Pressure Humidity
    00:00 +2°C° 0 mm 2 mps 766 mmHg 92%
    01:00 +3°C° 0 mm 1 mps 767 mmHg 92%
    02:00 +3°C° 0 mm 1 mps 767 mmHg 92%
    03:00 +2°C° 0 mm 1 mps 767 mmHg 93%
    04:00 +2°C° 0 mm 1 mps 768 mmHg 93%
    05:00 +2°C° 0 mm 1 mps 768 mmHg 93%
    06:00 +1°C° 0 mm 0 mps 768 mmHg 93%
    07:00 +2°C° 0 mm 1 mps 769 mmHg 92%
    08:00 +2°C° 0 mm 1 mps 769 mmHg 92%
    09:00 +2°C° 0 mm 1 mps 770 mmHg 92%
    10:00 +4°C° 0 mm 1 mps 770 mmHg 90%
    11:00 +4°C° 0 mm 2 mps 770 mmHg 88%
    12:00 +5°C° 0 mm 2 mps 770 mmHg 86%
    13:00 +5°C° 0 mm 2 mps 770 mmHg 88%
    14:00 +5°C° 0 mm 2 mps 770 mmHg 90%
    15:00 +5°C° 0 mm 2 mps 769 mmHg 92%
    16:00 +4°C° 0 mm 3 mps 769 mmHg 92%
    17:00 +4°C° 0 mm 3 mps 769 mmHg 93%
    18:00 +3°C° 0 mm 3 mps 770 mmHg 93%
    19:00 +4°C° 0 mm 4 mps 770 mmHg 93%
    20:00 +5°C° 0 mm 4 mps 769 mmHg 93%
    21:00 +5°C° 0 mm 5 mps 769 mmHg 93%
    22:00 +6°C° 0.3 mm 5 mps 769 mmHg 93%
    23:00 +6°C° 0.3 mm 5 mps 769 mmHg 93%

    18 December, Monday

    Time Temperature Precipitation Wind Pressure Humidity
    00:00 +7°C° 0.3 mm 6 mps 769 mmHg 93%
    01:00 +7°C° 0.1 mm 6 mps 769 mmHg 93%
    02:00 +7°C° 0.1 mm 6 mps 769 mmHg 93%
    03:00 +8°C° 0.1 mm 6 mps 769 mmHg 92%
    04:00 +8°C° 0 mm 6 mps 769 mmHg 93%
    05:00 +8°C° 0 mm 6 mps 769 mmHg 93%
    06:00 +8°C° 0 mm 5 mps 769 mmHg 94%
    07:00 +8°C° 0 mm 5 mps 769 mmHg 94%
    08:00 +8°C° 0 mm 5 mps 769 mmHg 95%
    09:00 +10°C° 0 mm 4 mps 769 mmHg 95%
    10:00 +10°C° 0 mm 4 mps 770 mmHg 94%
    11:00 +11°C° 0 mm 4 mps 770 mmHg 93%
    12:00 +11°C° 0 mm 4 mps 770 mmHg 92%
    13:00 +11°C° 0 mm 4 mps 770 mmHg 93%
    14:00 +11°C° 0 mm 3 mps 770 mmHg 94%
    15:00 +11°C° 0 mm 3 mps 770 mmHg 95%
    16:00 +10°C° 0 mm 2 mps 770 mmHg 96%
    17:00 +10°C° 0 mm 2 mps 770 mmHg 96%
    18:00 +9°C° 0 mm 2 mps 771 mmHg 97%
    19:00 +9°C° 0 mm 2 mps 771 mmHg 96%
    20:00 +10°C° 0 mm 1 mps 771 mmHg 96%
    21:00 +10°C° 0 mm 1 mps 772 mmHg 96%
    22:00 +10°C° 0 mm 1 mps 772 mmHg 96%
    23:00 +10°C° 0 mm 1 mps 772 mmHg 95%
    Show more